Regional Weather Roundup
Issued by NWS

Home | Current Version | Previous Version | Text Only | Print | Product List | Glossary Off
Versions: 1 2 3 4 5 6 7 8 9 10 11 12 13 14 15 16 17 18 19 20 21 22 23 24 25 26 27 28 29 30 31 32 33 34 35 36 37 38 39 40 41 42 43 44 45 46 47 48 49 50

000
ASUS45 KCYS 231310
RWRWY

WYOMING REGIONAL WEATHER ROUNDUP
NATIONAL WEATHER SERVICE CHEYENNE WY
700 AM MDT WED JUL 23 2014

NOTE:  "FAIR" INDICATES FEW OR NO CLOUDS BELOW 12,000 FEET
WITH NO SIGNIFICANT WEATHER AND/OR OBSTRUCTIONS TO VISIBILITY.

WYZ001-231400-
YELLOWSTONE NATIONAL PARK

CITY           SKY/WX    TMP DP  RH WIND       PRES   REMARKS
LK YELLOWSTONE   N/A     53  42  66 VRB3      30.42F
W YELLOWSTONE  NOT AVBL

$$
WYZ002>013-054>058-071-098>099-231400-
NORTHERN WYOMING

CITY           SKY/WX    TMP DP  RH WIND       PRES   REMARKS
JACKSON        CLEAR     50  41  71 CALM      30.34S
CODY           MOSUNNY   59  46  63 CALM      30.26R
GREYBULL       MOSUNNY   64  51  62 W6        30.18S
WORLAND        SUNNY     65  47  52 SE3       30.20S
SHERIDAN       MOSUNNY   65  56  72 SE7       30.19S
BUFFALO        SUNNY     63  57  81 S12       30.26F
GILLETTE       MOSUNNY   68  60  75 S23G29    30.25F
HULETT         FAIR      70  59  68 MISG      30.27
NEWCASTLE      FAIR      68  52  56 MISG      30.32

$$
WYZ014>020-022>026-101>103-231400-
CENTRAL WYOMING

CITY           SKY/WX    TMP DP  RH WIND       PRES   REMARKS
BIG PINEY      PTCLDY    44  32  62 NW6       30.40R
PINEDALE       SUNNY     46  37  71 MISG      30.40S
DUBOIS         FAIR      50  32  50 NW9       30.42S
LANDER         CLEAR     63  38  39 W7        30.29S
RIVERTON       CLEAR     63  54  72 E3        30.29S
CASPER         SUNNY     59  56  89 W3        30.31S
DOUGLAS        MOSUNNY   67  61  81 SE17G24   30.33R

$$
WYZ021-027>030-104>119-231400-
SOUTHERN WYOMING

CITY           SKY/WX    TMP DP  RH WIND       PRES   REMARKS
EVANSTON       CLEAR     60  28  29 S9        30.37S
KEMMERER       MOSUNNY   52  34  50 N10       30.40S
FORT BRIDGER   FAIR      62  24  23 W8        30.40S
ROCK SPRINGS   PTCLDY    59  23  25 SE3       30.36R
DIXON          FAIR      53  35  51 CALM      30.40S
RAWLINS        SUNNY     58  37  45 NE3       30.39S
SARATOGA       FAIR      57  39  51 CALM      30.42S
LARAMIE        SUNNY     59  56  89 S7        30.44S FOG
CHEYENNE       CLOUDY    62  61  96 S5        30.40S FOG
TORRINGTON     CLOUDY    67  58  72 SE15G22   30.32F
PINE BLUFFS    CLOUDY    64  63  94 E10       30.39R

$$



USA.gov is the U.S. government's official web portal to all federal, state and local government web resources and services.